Time,TemperatureF,DewpointF,PressureIn,WindDirection,WindDirectionDegrees,WindSpeedMPH,WindSpeedGustMPH,Humidity,HourlyPrecipIn,Conditions,Clouds,dailyrainin,SoftwareType,DateUTC
2013-03-06 00:02:00,25.0,19.0,30.07,North,0,2.0,3.0,79,0.00,,,0.00,,2013-03-06 05:02:00,
2013-03-06 00:10:00,25.0,19.0,30.07,NNE,23,3.0,5.0,79,0.00,,,0.00,,2013-03-06 05:10:00,
2013-03-06 00:12:00,25.0,19.0,30.07,North,0,3.0,4.0,79,0.00,,,0.00,,2013-03-06 05:12:00,
2013-03-06 00:22:00,25.0,19.0,30.07,North,0,3.0,4.0,79,0.00,,,0.00,,2013-03-06 05:22:00,
2013-03-06 00:32:00,25.0,19.0,30.07,NNE,23,3.0,5.0,79,0.00,,,0.00,,2013-03-06 05:32:00,
2013-03-06 00:42:00,25.0,19.0,30.07,NNE,23,3.0,5.0,79,0.00,,,0.00,,2013-03-06 05:42:00,
2013-03-06 00:52:00,25.0,19.0,30.07,NNE,23,3.0,5.0,79,0.00,,,0.00,,2013-03-06 05:52:00,
2013-03-06 01:02:00,25.0,19.0,30.07,NNE,23,3.0,5.0,79,0.00,,,0.00,,2013-03-06 06:02:00,
2013-03-06 04:32:00,28.0,23.0,30.09,NE,35,4.0,8.0,82,0.00,,,0.00,,2013-03-06 09:32:00,
2013-03-06 04:42:00,28.0,23.0,30.09,NE,35,4.0,8.0,82,0.00,,,0.00,,2013-03-06 09:42:00,
2013-03-06 04:52:00,28.0,24.0,30.10,NNE,25,1.0,6.0,83,0.00,,,0.00,,2013-03-06 09:52:00,
2013-03-06 05:02:00,28.0,24.0,30.10,North,6,3.0,4.0,83,0.00,,,0.00,,2013-03-06 10:02:00,
2013-03-06 05:11:00,28.0,24.0,30.10,North,6,3.0,4.0,83,0.00,,,0.00,,2013-03-06 10:11:00,
2013-03-06 05:22:00,28.0,24.0,30.11,NW,322,1.0,5.0,84,0.00,,,0.00,,2013-03-06 10:22:00,
2013-03-06 05:32:00,28.0,24.0,30.12,NW,317,4.0,6.0,84,0.00,,,0.00,,2013-03-06 10:32:00,
2013-03-06 05:42:00,28.0,24.0,30.12,NW,317,4.0,6.0,84,0.00,,,0.00,,2013-03-06 10:42:00,
2013-03-06 05:52:00,28.0,24.0,30.13,NW,319,3.0,6.0,84,0.00,,,0.00,,2013-03-06 10:52:00,
2013-03-06 06:02:00,28.0,24.0,30.13,NW,320,1.0,3.0,84,0.00,,,0.00,,2013-03-06 11:02:00,
2013-03-06 06:11:00,28.0,24.0,30.13,NW,320,1.0,3.0,84,0.00,,,0.00,,2013-03-06 11:11:00,
2013-03-06 06:22:00,28.0,24.0,30.14,NW,320,1.0,4.0,84,0.00,,,0.00,,2013-03-06 11:22:00,
2013-03-06 06:32:00,28.0,24.0,30.15,NW,320,2.0,4.0,84,0.00,,,0.00,,2013-03-06 11:32:00,
2013-03-06 06:42:00,28.0,24.0,30.15,NW,320,2.0,4.0,84,0.00,,,0.00,,2013-03-06 11:42:00,
2013-03-06 06:52:00,28.0,24.0,30.15,NW,320,1.0,3.0,84,0.00,,,0.00,,2013-03-06 11:52:00,
2013-03-06 07:02:00,28.0,24.0,30.15,NW,320,2.0,3.0,86,0.00,,,0.00,,2013-03-06 12:02:00,
2013-03-06 07:11:00,28.0,24.0,30.15,NW,320,2.0,3.0,86,0.00,,,0.00,,2013-03-06 12:11:00,
2013-03-06 07:22:00,28.0,24.0,30.16,NW,320,0.0,3.0,86,0.00,,,0.00,,2013-03-06 12:22:00,
2013-03-06 07:33:00,28.0,24.0,30.16,NW,320,1.0,2.0,86,0.00,,,0.00,,2013-03-06 12:33:00,
2013-03-06 07:42:00,28.0,24.0,30.16,NW,320,1.0,2.0,86,0.00,,,0.00,,2013-03-06 12:42:00,
2013-03-06 07:53:00,28.0,24.0,30.17,NW,320,2.0,3.0,86,0.00,,,0.00,,2013-03-06 12:53:00,
2013-03-06 08:02:00,28.0,24.0,30.17,NW,320,1.0,3.0,86,0.00,,,0.00,,2013-03-06 13:02:00,
2013-03-06 08:12:00,28.0,24.0,30.17,NW,320,1.0,3.0,86,0.00,,,0.00,,2013-03-06 13:12:00,
2013-03-06 08:22:00,28.0,24.0,30.18,NW,320,0.0,3.0,86,0.00,,,0.00,,2013-03-06 13:22:00,
2013-03-06 08:32:00,28.0,24.0,30.18,NW,320,2.0,3.0,86,0.00,,,0.00,,2013-03-06 13:32:00,
2013-03-06 08:42:00,28.0,24.0,30.18,NW,320,2.0,3.0,86,0.00,,,0.00,,2013-03-06 13:42:00,
2013-03-06 08:52:00,29.0,25.0,30.18,NW,320,2.0,4.0,84,0.00,,,0.00,,2013-03-06 13:52:00,
2013-03-06 09:01:00,29.0,24.0,30.17,NW,320,3.0,4.0,82,0.00,,,0.00,,2013-03-06 14:01:00,
2013-03-06 09:11:00,29.0,24.0,30.17,NW,320,3.0,4.0,82,0.00,,,0.00,,2013-03-06 14:11:00,
2013-03-06 09:22:00,30.0,25.0,30.17,NW,319,1.0,4.0,83,0.00,,,0.00,,2013-03-06 14:22:00,
2013-03-06 09:32:00,31.0,26.0,30.17,NE,37,2.0,5.0,81,0.00,,,0.00,,2013-03-06 14:32:00,
2013-03-06 09:42:00,31.0,26.0,30.17,NE,37,2.0,5.0,81,0.00,,,0.00,,2013-03-06 14:42:00,
2013-03-06 09:53:00,32.0,27.0,30.17,NNE,14,3.0,5.0,80,0.00,,,0.00,,2013-03-06 14:53:00,
2013-03-06 10:02:00,33.0,28.0,30.18,NE,45,3.0,3.0,80,0.00,,,0.00,,2013-03-06 15:02:00,
2013-03-06 10:12:00,33.0,28.0,30.18,NE,45,3.0,3.0,80,0.00,,,0.00,,2013-03-06 15:12:00,
2013-03-06 10:22:00,33.0,28.0,30.18,North,9,5.0,9.0,80,0.00,,,0.00,,2013-03-06 15:22:00,
2013-03-06 10:32:00,34.0,28.0,30.18,NNE,14,2.0,3.0,78,0.00,,,0.00,,2013-03-06 15:32:00,
2013-03-06 10:42:00,34.0,28.0,30.18,NNE,14,2.0,3.0,78,0.00,,,0.00,,2013-03-06 15:42:00,
2013-03-06 10:52:00,34.0,27.0,30.18,North,354,3.0,7.0,76,0.00,,,0.00,,2013-03-06 15:52:00,
2013-03-06 11:02:00,35.0,28.0,30.19,NNW,338,7.0,7.0,75,0.00,,,0.00,,2013-03-06 16:02:00,
2013-03-06 11:12:00,35.0,28.0,30.19,NNW,338,7.0,7.0,75,0.00,,,0.00,,2013-03-06 16:12:00,
2013-03-06 11:21:00,35.0,28.0,30.19,NNW,341,4.0,8.0,74,0.00,,,0.00,,2013-03-06 16:21:00,
2013-03-06 11:32:00,35.0,28.0,30.19,NNW,344,4.0,7.0,74,0.00,,,0.00,,2013-03-06 16:32:00,
2013-03-06 11:42:00,35.0,28.0,30.19,NNW,344,4.0,7.0,74,0.00,,,0.00,,2013-03-06 16:42:00,
2013-03-06 11:52:00,36.0,28.0,30.19,North,0,2.0,10.0,73,0.00,,,0.00,,2013-03-06 16:52:00,
2013-03-06 12:01:00,36.0,28.0,30.19,NNE,26,3.0,5.0,72,0.00,,,0.00,,2013-03-06 17:01:00,
2013-03-06 12:11:00,36.0,28.0,30.19,NNE,26,3.0,5.0,72,0.00,,,0.00,,2013-03-06 17:11:00,
2013-03-06 12:22:00,36.0,28.0,30.19,NNE,27,5.0,9.0,72,0.00,,,0.00,,2013-03-06 17:22:00,
2013-03-06 12:32:00,36.0,28.0,30.19,NNE,30,3.0,8.0,72,0.00,,,0.00,,2013-03-06 17:32:00,
2013-03-06 12:42:00,36.0,28.0,30.19,NNE,30,3.0,8.0,72,0.00,,,0.00,,2013-03-06 17:42:00,
2013-03-06 12:53:00,36.0,28.0,30.19,NNE,20,2.0,6.0,72,0.00,,,0.00,,2013-03-06 17:53:00,
2013-03-06 13:02:00,37.0,28.0,30.19,NNE,19,5.0,6.0,70,0.00,,,0.00,,2013-03-06 18:02:00,
2013-03-06 13:29:00,37.0,29.0,30.19,NNE,25,5.0,9.0,72,0.00,,,0.00,,2013-03-06 18:29:00,
2013-03-06 13:42:00,37.0,28.0,30.19,NNE,26,3.0,9.0,70,0.00,,,0.00,,2013-03-06 18:42:00,
2013-03-06 13:53:00,37.0,28.0,30.18,NNW,339,5.0,8.0,71,0.00,,,0.00,,2013-03-06 18:53:00,
2013-03-06 14:02:00,36.0,28.0,30.18,NNW,348,10.0,10.0,72,0.00,,,0.00,,2013-03-06 19:02:00,
2013-03-06 14:11:00,36.0,28.0,30.18,NNW,348,10.0,10.0,72,0.00,,,0.00,,2013-03-06 19:11:00,
2013-03-06 14:22:00,35.0,28.0,30.18,NNE,19,7.0,12.0,75,0.00,,,0.00,,2013-03-06 19:22:00,
2013-03-06 14:32:00,34.0,27.0,30.18,North,349,8.0,14.0,75,0.00,,,0.00,,2013-03-06 19:32:00,
2013-03-06 14:43:00,34.0,27.0,30.18,North,349,8.0,14.0,75,0.00,,,0.00,,2013-03-06 19:43:00,
2013-03-06 14:53:00,34.0,28.0,30.19,North,352,7.0,14.0,77,0.00,,,0.00,,2013-03-06 19:53:00,
2013-03-06 15:02:00,34.0,28.0,30.18,NNW,341,10.0,12.0,77,0.00,,,0.00,,2013-03-06 20:02:00,
2013-03-06 15:12:00,34.0,28.0,30.18,NNW,341,10.0,12.0,77,0.00,,,0.00,,2013-03-06 20:12:00,
2013-03-06 15:22:00,34.0,28.0,30.19,North,349,7.0,12.0,78,0.00,,,0.00,,2013-03-06 20:22:00,
2013-03-06 15:32:00,34.0,28.0,30.19,NNW,344,6.0,10.0,78,0.00,,,0.00,,2013-03-06 20:32:00,
2013-03-06 15:42:00,34.0,28.0,30.19,NNW,344,6.0,10.0,78,0.00,,,0.00,,2013-03-06 20:42:00,
2013-03-06 15:53:00,34.0,28.0,30.20,NNW,346,9.0,12.0,77,0.00,,,0.00,,2013-03-06 20:53:00,
2013-03-06 16:02:00,34.0,28.0,30.20,North,356,7.0,10.0,77,0.00,,,0.00,,2013-03-06 21:02:00,
2013-03-06 16:12:00,34.0,28.0,30.20,North,356,7.0,10.0,77,0.00,,,0.00,,2013-03-06 21:12:00,
2013-03-06 16:22:00,34.0,28.0,30.20,North,0,6.0,11.0,77,0.00,,,0.00,,2013-03-06 21:22:00,
2013-03-06 16:32:00,33.0,27.0,30.20,North,350,5.0,8.0,78,0.00,,,0.00,,2013-03-06 21:32:00,
2013-03-06 16:42:00,33.0,27.0,30.20,North,350,5.0,8.0,78,0.00,,,0.00,,2013-03-06 21:42:00,
2013-03-06 16:52:00,33.0,27.0,30.20,North,0,4.0,10.0,78,0.00,,,0.00,,2013-03-06 21:52:00,
2013-03-06 17:02:00,33.0,27.0,30.20,NNW,345,7.0,10.0,78,0.00,,,0.00,,2013-03-06 22:02:00,
2013-03-06 17:11:00,33.0,27.0,30.20,NNW,345,7.0,10.0,78,0.00,,,0.00,,2013-03-06 22:11:00,
2013-03-06 17:22:00,33.0,27.0,30.20,NNW,347,10.0,10.0,79,0.00,,,0.00,,2013-03-06 22:22:00,
2013-03-06 17:32:00,32.0,27.0,30.20,North,4,6.0,8.0,80,0.00,,,0.00,,2013-03-06 22:32:00,
2013-03-06 17:42:00,32.0,27.0,30.20,North,4,6.0,8.0,80,0.00,,,0.00,,2013-03-06 22:42:00,
2013-03-06 17:52:00,32.0,27.0,30.20,NNW,344,4.0,7.0,80,0.00,,,0.00,,2013-03-06 22:52:00,
2013-03-06 18:01:00,32.0,27.0,30.20,North,352,5.0,9.0,81,0.00,,,0.00,,2013-03-06 23:01:00,
2013-03-06 18:11:00,32.0,27.0,30.20,North,352,5.0,9.0,81,0.00,,,0.00,,2013-03-06 23:11:00,
2013-03-06 18:22:00,32.0,27.0,30.21,North,357,4.0,10.0,82,0.00,,,0.00,,2013-03-06 23:22:00,
2013-03-06 18:32:00,32.0,28.0,30.21,North,1,4.0,10.0,84,0.00,,,0.00,,2013-03-06 23:32:00,
2013-03-06 18:42:00,32.0,28.0,30.21,North,1,4.0,10.0,84,0.00,,,0.00,,2013-03-06 23:42:00,
2013-03-06 18:52:00,31.0,27.0,30.21,NNW,343,5.0,8.0,86,0.00,,,0.00,,2013-03-06 23:52:00,
2013-03-06 19:02:00,31.0,28.0,30.22,North,357,4.0,6.0,87,0.00,,,0.00,,2013-03-07 00:02:00,
2013-03-06 19:11:00,31.0,28.0,30.22,North,357,4.0,6.0,87,0.00,,,0.00,,2013-03-07 00:11:00,
2013-03-06 19:21:00,31.0,28.0,30.22,North,357,3.0,8.0,88,0.00,,,0.00,,2013-03-07 00:21:00,
2013-03-06 19:32:00,31.0,28.0,30.22,NNW,343,5.0,9.0,90,0.00,,,0.00,,2013-03-07 00:32:00,
2013-03-06 19:42:00,31.0,28.0,30.22,NNW,343,5.0,9.0,90,0.00,,,0.00,,2013-03-07 00:42:00,
2013-03-06 19:52:00,31.0,29.0,30.22,North,354,6.0,7.0,91,0.00,,,0.00,,2013-03-07 00:52:00,
2013-03-06 20:01:00,31.0,29.0,30.22,North,0,3.0,6.0,92,0.00,,,0.00,,2013-03-07 01:01:00,
2013-03-06 20:11:00,31.0,29.0,30.22,North,0,3.0,6.0,92,0.00,,,0.00,,2013-03-07 01:11:00,
2013-03-06 20:21:00,31.0,29.0,30.22,North,353,3.0,6.0,92,0.00,,,0.00,,2013-03-07 01:21:00,
2013-03-06 20:32:00,31.0,29.0,30.23,North,352,7.0,10.0,93,0.00,,,0.00,,2013-03-07 01:32:00,
2013-03-06 20:42:00,31.0,29.0,30.23,North,352,7.0,10.0,93,0.00,,,0.00,,2013-03-07 01:42:00,
2013-03-06 20:52:00,31.0,29.0,30.23,North,356,7.0,10.0,93,0.00,,,0.00,,2013-03-07 01:52:00,
2013-03-06 21:01:00,30.0,28.0,30.23,North,352,8.0,13.0,93,0.00,,,0.00,,2013-03-07 02:01:00,
2013-03-06 21:11:00,30.0,28.0,30.23,North,352,8.0,13.0,93,0.00,,,0.00,,2013-03-07 02:11:00,
2013-03-06 21:21:00,30.0,28.0,30.24,North,350,8.0,11.0,94,0.00,,,0.00,,2013-03-07 02:21:00,
2013-03-06 21:32:00,29.0,27.0,30.24,NNW,345,10.0,11.0,94,0.00,,,0.00,,2013-03-07 02:32:00,
2013-03-06 21:42:00,29.0,27.0,30.24,NNW,345,10.0,11.0,94,0.00,,,0.00,,2013-03-07 02:42:00,
2013-03-06 21:52:00,29.0,27.0,30.24,NNW,345,10.0,11.0,94,0.00,,,0.00,,2013-03-07 02:52:00,
2013-03-06 22:02:00,28.0,27.0,30.25,NNW,341,7.0,12.0,94,0.00,,,0.00,,2013-03-07 03:02:00,
2013-03-06 22:11:00,28.0,27.0,30.25,North,352,10.0,16.0,95,0.00,,,0.00,,2013-03-07 03:11:00,
2013-03-06 22:21:00,28.0,27.0,30.25,North,352,10.0,16.0,95,0.00,,,0.00,,2013-03-07 03:21:00,
2013-03-06 22:32:00,28.0,27.0,30.25,NNE,22,8.0,12.0,94,0.00,,,0.00,,2013-03-07 03:32:00,
2013-03-06 22:42:00,28.0,27.0,30.25,NNE,22,8.0,12.0,94,0.00,,,0.00,,2013-03-07 03:42:00,
2013-03-06 22:52:00,28.0,27.0,30.25,NNW,346,7.0,17.0,94,0.00,,,0.00,,2013-03-07 03:52:00,
2013-03-06 23:02:00,27.0,25.0,30.25,NNW,346,9.0,14.0,93,0.00,,,0.00,,2013-03-07 04:02:00,
2013-03-06 23:12:00,27.0,25.0,30.25,NNW,346,9.0,14.0,93,0.00,,,0.00,,2013-03-07 04:12:00,
2013-03-06 23:22:00,27.0,25.0,30.26,North,355,9.0,17.0,92,0.00,,,0.00,,2013-03-07 04:22:00,
2013-03-06 23:32:00,27.0,24.0,30.26,North,354,10.0,17.0,90,0.00,,,0.00,,2013-03-07 04:32:00,
2013-03-06 23:42:00,27.0,24.0,30.26,North,354,10.0,17.0,90,0.00,,,0.00,,2013-03-07 04:42:00,
2013-03-06 23:52:00,27.0,24.0,30.27,NNW,346,7.0,17.0,87,0.00,,,0.00,,2013-03-07 04:52:00,